Norfolk, NE

7:11 AM CDT on September 22, 2017 (GMT -0500)
Stefan Memorial

Weather History for KOFK - March, 2013

Change the Weather History Date:

Saturday, March 30, 2013

  Actual Average Record
Temperature  
Mean Temperature 52 °F 43 °F  
Max Temperature 64 °F 55 °F 87 °F (1968)
Min Temperature 39 °F 31 °F 10 °F (1944)
Degree Days  
Heating Degree Days 13 22  
Month to date heating degree days 968 834  
Since 1 July heating degree days 5889 5927  
Cooling Degree Days 0 0  
Month to date cooling degree days 0 0  
Year to date cooling degree days 0 0  
Growing Degree Days 4 (Base 50)    
Moisture  
Dew Point 44 °F    
Average Humidity 69    
Maximum Humidity 100    
Minimum Humidity 37    
Precipitation  
Precipitation 0.08 in 0.08 in 1.05 in (1949)
Month to date precipitation 1.24 1.69  
Year to date precipitation 2.14 3.04  
Snow  
Snow 0.00 in 0.10 in - ()
Month to date snowfall 5.2 4.9  
Since 1 July snowfall 20.1 27.7  
Snow Depth 0.00 in    
Sea Level Pressure  
Sea Level Pressure 29.96 in    
Wind  
Wind Speed 8 mph (WNW)    
Max Wind Speed 29 mph    
Max Gust Speed 33 mph    
Visibility 7 miles    
Events Rain , Thunderstorm    
T = Trace of Precipitation, MM = Missing Value Source: NWS Daily Summary

Daily Weather History Graph

Daily Weather History Graph

Search for Another Location

Airport or City:

Trip Planner

Search our weather history database for the weather conditions in past years. The results will help you decide how hot, cold, wet, or windy it might be!

Date:

Astronomy

Mar. 30, 2013 Rise Set
Actual Time 7:15 AM CDT 7:53 PM CDT
Civil Twilight 6:47 AM CDT 8:21 PM CDT
Nautical Twilight 6:14 AM CDT 8:54 PM CDT
Astronomical Twilight 5:39 AM CDT 9:29 PM CDT
Moon No Moon Rise 9:07 AM CDT (3/30)
Length of Visible Light 13h 34m
Length of Day
12h 38m
Waning Gibbous, 86% of the Moon is Illuminated
Mar 30
Waning Gibbous
Apr 2
Last Quarter
Apr 10
New
Apr 18
First Quarter
Apr 25
Full

Hourly Weather History & Observations

Time (CDT) Temp. Windchill Dew Point Humidity Pressure Visibility Wind Dir Wind Speed Gust Speed Precip Events Conditions
12:56 AM 50.0 °F - 45.0 °F 83% 30.01 in 10.0 mi Calm Calm - N/A   Overcast
1:51 AM 50.0 °F - 44.6 °F 82% 30.03 in 10.0 mi North 8.1 mph - 0.00 in Rain Light Rain
1:56 AM 50.0 °F - 45.0 °F 83% 30.01 in 7.0 mi ENE 5.8 mph - 0.00 in Rain Rain
2:10 AM 48.2 °F - 44.6 °F 87% 30.00 in 7.0 mi ESE 6.9 mph - 0.02 in Rain , Thunderstorm Light Rain
2:25 AM 48.2 °F - 44.6 °F 87% 29.99 in 7.0 mi South 8.1 mph - 0.03 in Rain , Thunderstorm Light Rain
2:46 AM 48.2 °F - 44.6 °F 87% 29.97 in 6.0 mi South 16.1 mph - 0.08 in Rain Light Rain
2:56 AM 48.0 °F - 45.0 °F 89% 29.96 in 10.0 mi South 13.8 mph - 0.08 in   Overcast
3:56 AM 48.0 °F - 46.9 °F 96% 29.93 in 8.0 mi SSE 9.2 mph - N/A   Scattered Clouds
4:56 AM 48.0 °F - 46.9 °F 96% 29.94 in 6.0 mi SE 3.5 mph - 0.00 in Rain Light Rain
5:56 AM 46.9 °F - 46.0 °F 97% 29.93 in 5.0 mi SSW 3.5 mph - 0.00 in   Clear
6:33 AM 46.4 °F - 44.6 °F 93% 29.94 in 2.5 mi Calm Calm - N/A   Mostly Cloudy
6:50 AM 44.6 °F - 44.6 °F 100% 29.94 in 1.5 mi Calm Calm - N/A   Mostly Cloudy
6:56 AM 45.0 °F - 45.0 °F 100% 29.95 in 0.8 mi Calm Calm - N/A   Mostly Cloudy
7:06 AM 44.6 °F - 44.6 °F 100% 29.95 in 2.0 mi Calm Calm - N/A   Overcast
7:29 AM 46.4 °F - 46.4 °F 100% 29.96 in 3.0 mi Calm Calm - N/A   Overcast
7:44 AM 46.4 °F - 44.6 °F 93% 29.96 in 2.0 mi Calm Calm - N/A   Overcast
7:51 AM 46.4 °F - 46.4 °F 100% 29.96 in 1.5 mi Calm Calm - N/A   Mostly Cloudy
7:56 AM 46.9 °F - 46.0 °F 97% 29.96 in 1.8 mi Calm Calm - N/A   Mostly Cloudy
8:08 AM 46.4 °F - 46.4 °F 100% 29.96 in 2.0 mi Calm Calm - N/A   Mostly Cloudy
8:18 AM 48.2 °F - 46.4 °F 93% 29.96 in 3.0 mi WNW 3.5 mph - N/A   Partly Cloudy
8:56 AM 51.1 °F - 48.9 °F 92% 29.96 in 4.0 mi West 6.9 mph - N/A   Mostly Cloudy
9:09 AM 50.0 °F - 48.2 °F 94% 29.96 in 5.0 mi WNW 10.4 mph - N/A   Mostly Cloudy
9:21 AM 50.0 °F - 48.2 °F 94% 29.96 in 5.0 mi WNW 8.1 mph - N/A   Mostly Cloudy
9:23 AM 50.0 °F - 48.2 °F 94% 29.96 in 4.0 mi WNW 9.2 mph - N/A   Mostly Cloudy
9:30 AM 50.0 °F - 48.2 °F 94% 29.96 in 5.0 mi West 8.1 mph - N/A   Mostly Cloudy
9:56 AM 52.0 °F - 48.0 °F 86% 29.96 in 7.0 mi WNW 10.4 mph - N/A   Mostly Cloudy
10:17 AM 51.8 °F - 46.4 °F 82% 29.96 in 10.0 mi NW 10.4 mph - N/A   Scattered Clouds
10:56 AM 55.0 °F - 45.0 °F 69% 29.97 in 10.0 mi NNW 11.5 mph - N/A   Clear
11:56 AM 55.9 °F - 42.1 °F 60% 29.98 in 10.0 mi North 12.7 mph - N/A   Clear
12:56 PM 59.0 °F - 41.0 °F 51% 29.97 in 10.0 mi North 11.5 mph 19.6 mph N/A   Partly Cloudy
1:56 PM 62.1 °F - 41.0 °F 46% 29.96 in 10.0 mi NNW 13.8 mph 20.7 mph N/A   Clear
2:56 PM 64.0 °F - 37.9 °F 38% 29.94 in 10.0 mi NNW 15.0 mph 21.9 mph N/A   Clear
3:56 PM 63.0 °F - 37.0 °F 38% 29.94 in 10.0 mi North 11.5 mph 21.9 mph N/A   Clear
4:56 PM 61.0 °F - 37.0 °F 41% 29.94 in 10.0 mi North 11.5 mph - N/A   Partly Cloudy
5:56 PM 61.0 °F - 36.0 °F 39% 29.93 in 10.0 mi NW 8.1 mph - N/A   Scattered Clouds
6:56 PM 54.0 °F - 41.0 °F 62% 29.96 in 10.0 mi North 17.3 mph 25.3 mph 0.00 in   Mostly Cloudy
7:56 PM 51.1 °F - 42.1 °F 71% 29.95 in 10.0 mi Calm Calm - N/A   Clear
8:56 PM 46.9 °F - 41.0 °F 80% 29.97 in 10.0 mi Calm Calm - N/A   Clear
9:56 PM 45.0 °F 42.6 °F 41.0 °F 86% 29.99 in 10.0 mi WSW 4.6 mph - N/A   Clear
10:56 PM 45.0 °F 41.8 °F 42.1 °F 90% 29.99 in 10.0 mi WSW 5.8 mph - N/A   Clear
11:56 PM 44.1 °F 41.5 °F 39.9 °F 85% 29.99 in 10.0 mi West 4.6 mph - N/A   Clear